[Date Prev][Date Next][Thread Prev][Thread Next][Date Index][Thread Index]

[jamsat-news:1261] jas2info #185



========================   最新情報   ==============================

        Last updated :Sat.22-Apr.-2000  16:00 (JST) #185
====================================================================
   
  1)アマチュア通信衛星情報 FOシリーズの軌道要素、テレメトリ、
   QSOの状況等をまとめてみました.
   
   FO−29の4月22日(土)のテレメトリはJARLのホームページの
  運用予定のとうり12:06(JST)のパスではアナログ系運用になって
  おりました.CW信号でテレメトリを12:08〜12:18(JST)に
  受信できました.
  現在まで、当局で取得したデータの1部を掲載しておきます.

 AS18171C1  22Apri2000
 12:08-12:18(JST)
                                                 92 8F 9D 85 BB BA BB BB B8  
 HI HI AE C7 88 55 AO 3B 0A 0D 00 2E 67 9B 85 60 94 92 A0 7C BB BA BB BB B8 
 HI HI AE 07 88 55 06 3B FF 0D 00 2E 56 42 7E 49 95 93 B0 BC BB BA BB BA B8 
 HI HI AE 07 88 55 0B 3B FF 0D 00 2E 4B 9F 70 4F 94 92 A1 71 BD BA BB BB B8 
 HI HI AE C7 88 55 09 3B FF 0D 00 2E 43 46 80 60 93 91 B0 9A BB B9 BB BA B8 
 HI HI AE C7 88 55 15 3B FF 0D 00 2E 35 8A 61 56 94 91 9F B1 BB B9 BA BA B8 
 HI HI AE C7 88 55 1A 3B FF 0D 00 2E 1E 9A 72 58 94 91 9F 6B BA B9 BA BA B8 
 HI HI AE C7 88 55 1F 3B FF 0D 00 2E 33 55 85    94 91 A0 7E BA B9 BA BA B8 
 HI HI AE C7 88 55 04 3B CF 0D 00 2E 48 5E       92 90 A0 93 BA B9 BA BA B8   
 HI HI AE C7 88 55 09 3B FF 0D 00 2E 2  B2 6E 60 92 90 9F    BA B9 BA BA B8 
 HI HI AE C7 88 55 13 3B 0A OD 00 2E 80 27 7E 60 92 90 9F 58 BA B8 BA BA B8 
 HI HI AE C7 88 55 A9 3B FF 0D 00 2E 2D 96 7B 60       9E 8A BA B8 B9 B9 B8 
 HI HI AE C7 88 55 1E 3D FF 1A 00 2E 3A  5    60 93 91 B0 7B BA B8 B9 B9 B8
 HI HI AE 07 88 55 03 3B FF 0D 00 2E 35 55  9 3B 94 91 B0 95 B9 B8 B9 B9 B8 
 HI HI AE 07 88 55 08 3B FF 0D 00 2E 91 9C 88 5F 92 91 B0 76 B9 B8 B9 B9 B8 
 HI HI AE C7 88 55 0D 3B FF 0D 00 2E 5F 2A 91 60 93 90 B0 78 B9 B8 B9 B9 B8 
 HI HI AE C7 88 55 13 3B FF 1E 00 2E 67 C4 78 60 94 91 B0 69 B9 B7 B9 B9 B8 
 HI HI AE C7 88 55 18 3B FF 0D 00 2E 94 27 87 60 92 90 B0 7A B9 B7 B9 B9 B8


***** AS18144P 21Fri2000 *****

8J1JCS>BEACON [04/21/00  12:12:49]:
JAS-2    '97/04/20 03:13:06
9C 03 03 08 00 39 00 00 00 00
00 00 47 F0 5D 7C 4B 94 91 9F
AA 52 A8 01 CC B8 BC BB B9 BA
8J1JCS>BEACON [04/21/00  12:12:50]:D5 02 00 09 00 00 C0 40 00 00
85 3B 26 5B 47 69 6D 81 81 7E
00 00 00 AE 83 B3 F7 00 00 00
8J1JCS>BEACON [04/21/00  12:12:51]:
User not connect.

8J1JCS>BEACON [04/21/00  12:12:52]:
Total    2 File(s)
 No.  Date  UTC    To    From   Size   Subject
0002 03/10 07:55 ALL    K7XQ        69 
0001 03/07 08:52 ALL
8J1JCS>BEACON [04/21/00  12:12:54]:    K7XQ        29 Hello from K7XQ

8J1JCS>BEACON [04/21/00  12:14:49]:
JAS-2    '97/04/20 03:15:06
9C 03 63 08 00 39 00 00 00 00
00 00 47 F0 99 89 5F 92 90 B0
AA 52 A8 01 B7 B8 BC BB B9 BA

8J1JCS>BEACON [04/21/00  12:14:50]:D5 02 00 09 00 00 C0 40 00 00
85 3B 29 57 47 5A 5C 81 82 7F
00 00 00 AE 83 B3 F7 00 00 00

8J1JCS>BEACON [04/21/00  12:14:51]:
User not connect.

8J1JCS>BEACON [04/21/00  12:14:52]:
Total    2 File(s)
 No.  Date  UTC    To    From   Size   Subject
0002 03/10 07:55 ALL    K7XQ        69
0001 03/07 08:52 ALL
8J1JCS>BEACON [04/21/00  12:14:54]:    K7XQ        29 Hello from K7XQ

8J1JCS>BEACON [04/21/00  12:16:49]:
JAS-2    '97/04/20 03:17:06
9C 03 63 08 00 39 00 00 00 00
00 00 47 F0 D5 79 60 93 90 B0
AB 52 A8 02 E2 B8 BB BB B8 BA

8J1JCS>BEACON [04/21/00  12:16:50]:D5 02 00 09 00 00 C0 40 00 00
85 3B 3B 64 47 40 41 81 83 7F
00 00 00 AD 83 B3 F7 00 00 00

8J1JCS>BEACON [04/21/00  12:16:51]:
User not connect.

8J1JCS>BEACON [04/21/00  12:16:53]:
Total    2 File(s)
 No.  Date  UTC    To    From   Size   Subject
0002 03/10 07:55 ALL    K7XQ        69 
0001 03/07 08:52 ALL
8J1JCS>BEACON [04/21/00  12:16:54]:    K7XQ        29 Hello from K7XQ

8J1JCS>BEACON [04/21/00  12:18:49]:
JAS-2    '97/04/20 03:19:06
9C 03 03 08 00 39 00 00 00 00
00 00 47 F1 11 71 50 94 92 9F
AA 52 A8 01 B5 B8 BB BB B8 B9

8J1JCS>BEACON [04/21/00  12:18:50]:D5 02 00 09 00 00 C0 40 00 00
85 3B 47 71 47 37 39 81 84 80
00 00 00 AD 84 B3 F7 00 00 00

8J1JCS>BEACON [04/21/00  12:18:51]:
User not connect.

8J1JCS>BEACON [04/21/00  12:18:52]:
Total    2 File(s)
 No.  Date  UTC    To    From   Size   Subject
0002 03/10 07:55 ALL    K7XQ        69 
0001 03/07 08:52 ALL
8J1JCS>BEACON [04/21/00  12:18:54]:    K7XQ        29 Hello from K7XQ

8J1JCS>BEACON [04/21/00  12:20:49]:
JAS-2    '97/04/20 03:21:06
9C 03 63 08 00 39 00 00 00 00
00 00 47 F1 4D 88 60 93 91 B0
AA 52 A8 02 E2 B8 BB BA B7 B9

8J1JCS>BEACON [04/21/00  12:20:50]:D5 02 00 09 00 00 C0 40 00 00
85 3B 52 7E 47 32 34 82 84 80
00 00 00 AC 84 B3 F7 00 00 00

8J1JCS>BEACON [04/21/00  12:20:51]:
User not connect.

8J1JCS>BEACON [04/21/00  12:20:53]:
Total    2 File(s)
 No.  Date  UTC    To    From   Size   Subject
0002 03/10 07:55 ALL    K7XQ        69 
0001 03/07 08:52 ALL

8J1JCS>BEACON [04/21/00  12:20:54]:    K7XQ        29 Hello from K7XQ

8J1JCS>BEACON [04/21/00  12:22:49]:
JAS-2    '97/04/20 03:23:06
9C 03 63 08 00 39 00 00 00 00
00 00 47 F1 89 98 60 93 90 B0
AA 52 A8 02 E3 B8 BA BA B7 B9

8J1JCS>BEACON [04/21/00  12:22:50]:D5 02 00 09 00 00 C0 40 00 00
85 3B 59 89 47 31 33 82 84 81
00 00 00 AB 84 B3 F7 00 00 00

8J1JCS>BEACON [04/21/00  12:22:51]:
User not connect.
8J1JCS>BEACON [04/21/00  12:22:53]:
Total    2 File(s)
 No.  Date  UTC    To    From   Size   Subject
0002 03/10 07:55 ALL    K7XQ        69 
0001 03/07 08:52 ALL
8J1JCS>BEACON [04/21/00  12:22:54]:    K7XQ        29 Hello from K7XQ

 ------------------------ FO-29の軌道要素 ------------------------------        
 
  ■ 軌道要素1:「jamsat−keps:985」より              
            SB KEPS @ AMSAT  $ORB00112.N
            2Line Orbital Elements 00112.AMSAT

 HR AMSAT ORBITAL ELEMENTS FOR AMATEUR SATELLITES IN NASA FORMAT
 FROM WA5QGD FORT WORTH,TX April 21, 2000
 SEND SUBSCRIBE/UNSUBSCRIBE TO majordomo@amsat.org ONLY
 BID: ORB00112.N

  DECODE 2-LINE ELSETS WITH THE FOLLOWING KEY:
  1 AAAAAU 00  0  0 BBBBB.BBBBBBBB  .CCCCCCCC  00000-0  00000-0 0  DDDZ
  2 AAAAA EEE.EEEE FFF.FFFF GGGGGGG HHH.HHHH III.IIII JJ.JJJJJJJJKKKKKZ
  KEY: A-CATALOGNUM B-EPOCHTIME C-DECAY D-ELSETNUM E-INCLINATION F-RAAN
  G-ECCENTRICITY H-ARGPERIGEE I-MNANOM J-MNMOTION K-ORBITNUM Z-CHECKSUM

  TO ALL RADIO AMATEURS BT

 FO-29
 1 24278U 96046B   00110.76188783  .00000086  00000-0  12431-3 0 03541
 2 24278 098.5893 026.2850 0351565 018.2773 343.0634 13.52715192181394

 ■ 軌道要素2:「jamsat−keps:986」より                         
         SB KEPS @ AMSAT  $ORB00112.O
         Orbital Elements  00112.OSCAR

 HR AMSAT ORBITAL ELEMENTS FOR OSCAR SATELLITES
 FROM WA5QGD FORT WORTH,TX April 21, 2000
 SEND SUBSCRIBE/UNSUBSCRIBE TO majordomo@amsat.org ONLY
 BID: ORB00112.O
 TO ALL RADIO AMATEURS BT

  Satellite: FO-29
 Catalog number: 24278
 Epoch time:      00110.76188783
 Element set:    0354
 Inclination:      098.5893 deg
 RA of node:       026.2850 deg
 Eccentricity:    0.0351565
 Arg of perigee:   018.2773 deg
 Mean anomaly:     343.0634 deg
 Mean motion:   13.52715192 rev/day
 Decay rate:        8.6e-07 rev/day^2
 Epoch rev:           18139
 Checksum:              320
-------------------  FO-29(JAS-2)のテレメトリに関する情報  ----------------------
 
 2)22日(土)のテレメトリの最後の行を換算した結果です.

    AS18171C1  22Apri2000
    12:08-12:18(JST)
                                                 
 HI HI AE C7 88 55 18 3B FF 0D 00 2E 94 27 87 60 92 90 B0 7A B9 B7 B9 B9 B8

 テレメトリ  	内   容	    	換算値	単 位 

 3C	磁気センサーZ	=     72549.0	[nT]
 3D	磁気センサX軸	=     19117.6	[nT]
 4A	太陽電池発生電流 =      1323.5	[mA]
 4B	B充放電電流	=      -118.4	[mA]
 4C	B端子電圧	=	 15.7	[V]
 4D	B中間端子電圧	=	  6.9	[V]
 5A	バス電圧	    =	 17.3	[V]
 5B	JTA送信電力	=	694.9	[mW]
 5C 	構体温度1	=	 10.0	[℃]
 5D	構体温度2	=	 10.8	[℃]
 6A	構体温度3	=	 10.0	[℃]
 6B	構体温度4	=	 10.0	[℃]
 6C	Bセル温度	=	 10.4	[℃]

 * OSはWindows 2000,Office 2000 にて計算処理.
 
 ==================================================================================

  4)JARL のホームページに運用予定が記載されていましたのでご紹介します.
       ( http://www.jarl.or.jp/Japanese/3_Fuji/new/uy.htm )

        ■ ふじ3号/FOー29/JAS-2 ■  
   
     *** 運用予定について ***   

 04月21日 〜 05月07日 アナログ系運用 

 *なお,運用予定は都合により変更することがありますのでご了承願います。

 照会先 : lab@jarl.or.jp

 最新の情報はテレホンサービス(03−3942−1000)をお聞きください。  
 以後の運用につきましては4月下旬にお知らせいたします。
 
-----------------------    FO−20(JAS-1b)道要素   -------------------------
  5)
  ■ 軌道要素1 :出典はFO-29「ふじ3号」に同じ.
  
   FO-20
  1 20480U 90013C   00111.84339488  .00000039  00000-0  15887-3 0  2208
  2 20480  99.0424 253.0048 0540378 185.0650 174.4846 12.83270785477924

  ■ 軌道要素2 :出典はFO−29「ふじ3号」に同じ.
               
   Satellite: FO-20
  Catalog number: 20480
  Epoch time:      00111.84339488
  Element set:     220
  Inclination:       99.0424 deg
  RA of node:       253.0048 deg
  Eccentricity:    0.0540378
  Arg of perigee:   185.0650 deg
  Mean anomaly:     174.4846 deg
  Mean motion:   12.83270785 rev/day
  Decay rate:        3.9e-07 rev/day^2
  Epoch rev:           47792
  Checksum:              301

 --------------------------------------------------------------------------------
 6)[jamsat‐bb:5248]にRE:[jamsat‐bb:5237]FO‐20のビーコン としてJA6BX局の
    江崎 昌男氏が投稿されていましたので転載させて頂きました.

  JO2OXL 落合 さん、

  4月16日のFO-20の状況については、同様のレポートおよび、ビーコンの
 みならず、ダウンリンクも極度に弱いというレポートがG8ATE、G7RVM、
 KB3CWSからも amsat-bb に上げられています。
 しかし、今日(21日)17:15JST〜のオービットで当局がワッチした限りでは、
 ビーコン、トラポンとも従来と特に違った状態は認められませんでした。
 当オービットで、FO-20によくQRVされているJR6BLW局とQSOしましたが
 相互に56−7で、JA6BLW 守山さんも特に最近のFO-20がいつもと違う様子
 にあるとの認識は無いとのことでした。
 今のところ、落合さんのレポート及びアメリカ、ヨーロッパからのレポートが
 16日に限られているとすると、その日に限った衛星の状態か、電波伝播上
 の現象の可能性があります。

 どなたか何か気が付いておられたら、アップして下さい。
 いずれにしても、引き続き状態をワッチしてみる必要が有りそうですね。

 JA6BX  江崎

 *JH6MMEのFO-20の4月22日(土)15:35〜のパスのビーコン観測結果では
  QSOは正常に行われていましたが、ビーコンは混濁した音で信号強度もかなり落ち
  ており、時々Sメーターが触れる程度でした.
  落合さん、江崎さんのおっしゃるように引き続き観測が必要です.

 ------------------------------------------------

         ■ ふじ2号/FO−20/JAS-1b ■      
            
          「ふじ2号」 現況                                                                                  
             
   JAS-1b(ふじ2号)のCWテレメトリ信号に,1997年10月12日12時(JST)の
 日本上空通過時,3桁の数字が繰り返されるはずが3個の長音の繰り返しとなっているという
 異常が発見されました。この不具合は次の通過時からは回復していましたが13日15時20分の
 通過時に再び観測されました。現在はA0の送信が続いています。衛星のアナログ系中継モード
 動作は異常が無く,正常時のテレメトリ内容からは衛星の動作に異常は認められません。従って,
 直ちに衛星のミッションに影響することは無いと予想されますので,当面はアナログ系中継
 モードを継続します。衛星は既に打ち上げてから7年8ヶ月を経ておりますので,今後は監視を
 強化する予定です。アマチュア各位のレポートをお待ちします。
 -------------------------------------------------------------------------------- 
  1997年10月14日 00時35分 確認のテレメトリ音 151 KB (A0) 
  1997年10月14日 11時10分 確認のテレメトリ音 216 KB (異常キーイング) 

  以上 JARLのホ−ムページの http://www.jarl.or.jp/Japanese/3_Fuji/new/fuji.htm
                                           
   =============   JAS-2 (ふじ3号)と現在までの情報   ===========
  
  A.電話によるふじ3号の運用情報
      社団法人日本アマチュア連盟によるサービス
           TEL .   03− 3942 − 1000
  B.アマチュア無線FAXサービス
      JARLによるふじ3号の軌道情報(オービットカレンダー)
         FAX No.  03− 3233 −0055
  C.WWWブラウザで情報を簡単に見れる人のためにJAS−2
     ふじ3号の衛星としての運用されるまでの名前)の概要、打ち上げ
     までの状況、運用中における状況を説明したホームページを紹介し
     ておきます.
     社団法人日本アマチュア無線連盟(JARL)のホームページ

          http://www.jarl.or.jp/Japanese/3_Fuji/jasmenu.htm
 
     宇宙開発事業団(NASDA)ホームページ 
          http://www.nasda.go.jp/
         打上げ衛星 :地球観測プラットフォーム技術衛星(ADEOS) 
                       アマチュア衛星3号(JAS-2)
          http://yyy.tksc.nasda.go.jp/Home/Press/Press-j/jas-2_j.html        

  D.JAMSATによる軌道情報の活用
        JAMSATのホームページまたはjamsat−kepsの軌道要素より
      衛星の軌道情報を得る.
     JAMSATホームページ
               URL    http://www.jamsat.or.jp
       上記ホームページでは各地で行われるアマチュア通信衛星に関する
      ミューティングのお知らせや世界のアマチュア衛星に関する情報が
      満載されています.
 ========================================================================  
     JAMSATのメンバーのご協力によりJH6MME(高山 秀造)が
    執筆・編集を担当しております.ご指摘の意見、疑問やこのようにしたら
    というアイデアがありましたら小さなことでもかまいませんので気軽に下
    記アドレスまでご連絡ください.jamsat−newsからjas2
    infoへの転載をJH4PHW局坂井さんに担当して頂いております.  
                  E-mail : jh6mme@jamsat.or.jp : jh4phw@jamsat.or.jp
 ===============================   END  ===============================